TimeEDT,TemperatureF,Dew PointF,Humidity,Sea Level PressureIn,VisibilityMPH,Wind Direction,Wind SpeedMPH,Gust SpeedMPH,PrecipitationIn,Events,Conditions,WindDirDegrees,DateUTC
12:56 AM,77.0,72.0,84,30.03,10.0,South,5.8,-,N/A,,Mostly Cloudy,190,2013-07-02 04:56:00
1:05 AM,77.0,72.0,84,30.03,10.0,South,5.8,-,N/A,,Mostly Cloudy,190,2013-07-02 05:05:00
1:40 AM,77.0,73.0,88,30.02,9.0,SSW,6.9,-,N/A,,Overcast,200,2013-07-02 05:40:00
1:56 AM,75.9,73.0,91,30.02,10.0,South,5.8,-,N/A,,Mostly Cloudy,190,2013-07-02 05:56:00
2:14 AM,75.9,73.0,91,30.01,10.0,South,4.6,-,N/A,,Mostly Cloudy,180,2013-07-02 06:14:00
2:56 AM,75.9,72.0,87,30.01,10.0,SSW,4.6,-,N/A,,Mostly Cloudy,210,2013-07-02 06:56:00
3:41 AM,75.9,72.0,87,30.01,10.0,SW,3.5,-,N/A,,Mostly Cloudy,230,2013-07-02 07:41:00
3:51 AM,75.2,73.4,94,30.01,10.0,Calm,Calm,-,N/A,,Mostly Cloudy,0,2013-07-02 07:51:00
3:56 AM,75.9,73.0,91,30.01,10.0,SW,3.5,-,N/A,,Mostly Cloudy,230,2013-07-02 07:56:00
4:05 AM,75.9,73.0,91,30.01,10.0,West,4.6,-,N/A,,Mostly Cloudy,280,2013-07-02 08:05:00
4:51 AM,75.2,73.4,94,30.02,10.0,West,3.5,-,N/A,,Mostly Cloudy,270,2013-07-02 08:51:00
4:56 AM,75.9,73.0,91,30.03,10.0,WNW,4.6,-,N/A,,Overcast,290,2013-07-02 08:56:00
5:56 AM,75.9,73.0,91,30.04,10.0,SW,4.6,-,N/A,,Overcast,230,2013-07-02 09:56:00
6:56 AM,75.9,73.0,91,30.06,10.0,Calm,Calm,-,N/A,,Overcast,0,2013-07-02 10:56:00
7:56 AM,77.0,73.9,90,30.08,10.0,South,3.5,-,0.01,Rain,Light Rain,190,2013-07-02 11:56:00
8:03 AM,77.0,73.0,88,30.08,10.0,South,3.5,-,0.00,Rain,Light Rain,190,2013-07-02 12:03:00
8:56 AM,79.0,73.9,84,30.09,10.0,South,3.5,-,0.00,Rain,Light Rain,180,2013-07-02 12:56:00
9:56 AM,80.1,73.0,79,30.09,10.0,North,-9999.0,-,0.00,Rain,Light Rain,0,2013-07-02 13:56:00
10:56 AM,80.1,73.0,79,30.09,10.0,South,4.6,-,0.00,,Overcast,190,2013-07-02 14:56:00
11:03 AM,80.1,73.0,79,30.09,10.0,Variable,4.6,-,N/A,,Mostly Cloudy,0,2013-07-02 15:03:00
11:26 AM,80.1,73.0,79,30.09,10.0,South,4.6,-,N/A,,Mostly Cloudy,170,2013-07-02 15:26:00
11:56 AM,79.0,73.0,82,30.11,10.0,SSE,9.2,-,0.00,Rain,Light Rain,160,2013-07-02 15:56:00
12:16 PM,77.0,73.9,90,30.10,4.0,SSE,9.2,-,0.03,Rain,Light Rain,160,2013-07-02 16:16:00
12:28 PM,75.9,73.0,91,30.11,2.0,SSE,13.8,25.3,0.07,Rain,Rain,160,2013-07-02 16:28:00
12:46 PM,73.0,71.1,93,30.11,3.0,SSE,6.9,21.9,0.10,Rain,Rain,160,2013-07-02 16:46:00
12:56 PM,73.0,70.0,90,30.11,4.0,South,5.8,-,0.12,Rain,Rain,180,2013-07-02 16:56:00
1:23 PM,73.0,71.1,93,30.11,2.0,South,6.9,-,0.07,Rain,Rain,170,2013-07-02 17:23:00
1:56 PM,73.9,72.0,93,30.09,3.0,SSE,3.5,-,0.18,Rain,Light Rain,150,2013-07-02 17:56:00
2:56 PM,78.1,75.0,90,30.08,10.0,SSE,4.6,-,0.00,,Mostly Cloudy,150,2013-07-02 18:56:00
3:19 PM,78.1,73.9,87,30.07,10.0,SSE,4.6,-,N/A,,Mostly Cloudy,160,2013-07-02 19:19:00
3:56 PM,80.1,75.0,85,30.07,5.0,SSE,10.4,-,0.00,Rain,Light Rain,160,2013-07-02 19:56:00
4:38 PM,81.0,73.0,77,30.07,10.0,South,12.7,21.9,0.00,Rain,Light Rain,170,2013-07-02 20:38:00
4:56 PM,81.0,73.9,79,30.07,10.0,South,9.2,19.6,0.00,,Mostly Cloudy,170,2013-07-02 20:56:00
5:43 PM,81.0,73.0,77,30.09,10.0,SSW,8.1,-,N/A,Thunderstorm,Scattered Clouds,200,2013-07-02 21:43:00
5:56 PM,81.0,73.0,77,30.09,10.0,South,8.1,-,N/A,Thunderstorm,Mostly Cloudy,190,2013-07-02 21:56:00
6:56 PM,81.0,73.0,77,30.09,10.0,South,6.9,-,N/A,,Mostly Cloudy,180,2013-07-02 22:56:00
7:56 PM,80.1,73.0,79,30.12,10.0,South,8.1,-,0.00,,Overcast,180,2013-07-02 23:56:00
8:56 PM,79.0,73.0,82,30.12,10.0,SSW,10.4,-,0.01,,Overcast,200,2013-07-03 00:56:00
9:38 PM,79.0,73.0,82,30.12,10.0,South,5.8,-,N/A,,Mostly Cloudy,190,2013-07-03 01:38:00
9:54 PM,78.8,73.4,83,30.12,10.0,South,5.8,-,N/A,,Mostly Cloudy,180,2013-07-03 01:54:00
9:56 PM,79.0,73.0,82,30.13,10.0,South,4.6,-,N/A,,Mostly Cloudy,180,2013-07-03 01:56:00
10:56 PM,78.1,72.0,81,30.15,10.0,South,3.5,-,N/A,,Mostly Cloudy,190,2013-07-03 02:56:00
11:56 PM,75.9,73.0,91,30.15,10.0,Calm,Calm,-,N/A,,Scattered Clouds,0,2013-07-03 03:56:00